Time,TemperatureF,DewpointF,PressureIn,WindDirection,WindDirectionDegrees,WindSpeedMPH,WindSpeedGustMPH,Humidity,HourlyPrecipIn,Conditions,Clouds,dailyrainin,SoftwareType,DateUTC
2013-04-18 00:01:00,62.7,55.4,30.09,South,188,4.0,12.0,77,0.00,,---,0.00,VWS V13.01,2013-04-18 04:01:00,
2013-04-18 00:06:00,62.8,55.5,30.10,SSE,155,7.0,16.0,77,0.00,,---,0.00,VWS V13.01,2013-04-18 04:06:00,
2013-04-18 00:11:00,62.8,55.5,30.10,ENE,75,9.0,16.0,77,0.00,,---,0.00,VWS V13.01,2013-04-18 04:11:00,
2013-04-18 00:16:00,62.9,55.6,30.10,SSE,157,5.0,20.0,77,0.00,,---,0.00,VWS V13.01,2013-04-18 04:16:00,
2013-04-18 00:21:00,63.0,55.7,30.09,ESE,108,4.0,20.0,77,0.00,,---,0.00,VWS V13.01,2013-04-18 04:21:00,
2013-04-18 00:26:00,63.1,55.4,30.09,ESE,119,9.0,20.0,76,0.00,,---,0.00,VWS V13.01,2013-04-18 04:26:00,
2013-04-18 00:31:00,63.2,55.5,30.09,South,186,8.0,14.0,76,0.00,,---,0.00,VWS V13.01,2013-04-18 04:31:00,
2013-04-18 00:36:00,63.3,55.6,30.10,East,81,5.0,20.0,76,0.00,,---,0.00,VWS V13.01,2013-04-18 04:36:00,
2013-04-18 00:41:00,63.3,55.2,30.10,SSE,158,3.0,20.0,75,0.00,,---,0.00,VWS V13.01,2013-04-18 04:41:00,
2013-04-18 00:46:00,63.2,55.2,30.10,West,268,4.0,20.0,75,0.00,,---,0.00,VWS V13.01,2013-04-18 04:46:00,
2013-04-18 00:51:00,63.3,55.2,30.10,SSW,207,6.0,20.0,75,0.00,,---,0.00,VWS V13.01,2013-04-18 04:51:00,
2013-04-18 00:56:00,63.2,55.5,30.11,NW,309,4.0,20.0,76,0.00,,---,0.00,VWS V13.01,2013-04-18 04:56:00,
2013-04-18 01:01:00,63.2,55.5,30.11,West,266,1.0,7.0,76,0.00,,---,0.00,VWS V13.01,2013-04-18 05:01:00,
2013-04-18 01:06:00,63.2,55.2,30.11,SSE,151,0.0,7.0,75,0.00,,---,0.00,VWS V13.01,2013-04-18 05:06:00,
2013-04-18 01:11:00,63.3,55.2,30.10,SSW,193,1.0,7.0,75,0.00,,---,0.00,VWS V13.01,2013-04-18 05:11:00,
2013-04-18 01:16:00,63.2,55.5,30.10,SE,142,3.0,7.0,76,0.00,,---,0.00,VWS V13.01,2013-04-18 05:16:00,
2013-04-18 01:21:00,63.0,55.3,30.10,SW,236,0.0,7.0,76,0.00,,---,0.00,VWS V13.01,2013-04-18 05:21:00,
2013-04-18 01:26:00,63.0,55.7,30.10,ESE,103,1.0,13.0,77,0.00,,---,0.00,VWS V13.01,2013-04-18 05:26:00,
2013-04-18 01:31:00,62.9,55.6,30.10,West,281,0.0,7.0,77,0.00,,---,0.00,VWS V13.01,2013-04-18 05:31:00,
2013-04-18 01:36:00,62.9,55.6,30.10,SSW,198,3.0,9.0,77,0.00,,---,0.00,VWS V13.01,2013-04-18 05:36:00,
2013-04-18 01:41:00,62.9,55.6,30.10,NW,305,3.0,9.0,77,0.00,,---,0.00,VWS V13.01,2013-04-18 05:41:00,
2013-04-18 01:46:00,62.8,55.5,30.09,West,260,1.0,9.0,77,0.00,,---,0.00,VWS V13.01,2013-04-18 05:46:00,
2013-04-18 01:51:00,62.8,55.5,30.08,SSE,147,5.0,9.0,77,0.00,,---,0.00,VWS V13.01,2013-04-18 05:51:00,
2013-04-18 01:56:00,62.7,55.4,30.08,SSW,196,5.0,9.0,77,0.00,,---,0.00,VWS V13.01,2013-04-18 05:56:00,
2013-04-18 02:01:00,62.7,55.8,30.09,SW,229,4.0,4.0,78,0.00,,---,0.00,VWS V13.01,2013-04-18 06:01:00,
2013-04-18 02:06:00,62.7,55.8,30.08,SE,142,2.0,10.0,78,0.00,,---,0.00,VWS V13.01,2013-04-18 06:06:00,
2013-04-18 02:11:00,62.7,55.8,30.08,SSE,147,2.0,10.0,78,0.00,,---,0.00,VWS V13.01,2013-04-18 06:11:00,
2013-04-18 02:16:00,62.6,55.7,30.08,SSW,212,2.0,10.0,78,0.00,,---,0.00,VWS V13.01,2013-04-18 06:16:00,
2013-04-18 02:21:00,62.6,55.7,30.08,SSE,167,2.0,10.0,78,0.00,,---,0.00,VWS V13.01,2013-04-18 06:21:00,
2013-04-18 02:26:00,62.6,55.7,30.07,SW,232,4.0,10.0,78,0.00,,---,0.00,VWS V13.01,2013-04-18 06:26:00,
2013-04-18 02:31:00,62.5,55.6,30.07,West,263,1.0,5.0,78,0.00,,---,0.00,VWS V13.01,2013-04-18 06:31:00,
2013-04-18 02:36:00,62.3,55.7,30.07,SW,219,1.0,8.0,79,0.00,,---,0.00,VWS V13.01,2013-04-18 06:36:00,
2013-04-18 02:41:00,62.2,55.6,30.07,SE,131,4.0,8.0,79,0.00,,---,0.00,VWS V13.01,2013-04-18 06:41:00,
2013-04-18 02:46:00,62.2,55.6,30.06,SE,145,5.0,12.0,79,0.00,,---,0.00,VWS V13.01,2013-04-18 06:46:00,
2013-04-18 02:51:00,62.2,55.6,30.06,SSW,213,4.0,12.0,79,0.00,,---,0.00,VWS V13.01,2013-04-18 06:51:00,
2013-04-18 02:56:00,62.2,55.6,30.05,SSW,192,6.0,12.0,79,0.00,,---,0.00,VWS V13.01,2013-04-18 06:56:00,
2013-04-18 03:01:00,62.3,55.7,30.05,South,183,2.0,3.0,79,0.00,,---,0.00,VWS V13.01,2013-04-18 07:01:00,
2013-04-18 03:06:00,62.3,55.7,30.05,SW,229,4.0,13.0,79,0.00,,---,0.00,VWS V13.01,2013-04-18 07:06:00,
2013-04-18 03:11:00,62.2,55.6,30.04,SSW,202,4.0,13.0,79,0.00,,---,0.00,VWS V13.01,2013-04-18 07:11:00,
2013-04-18 03:16:00,62.2,55.6,30.03,SSW,201,5.0,13.0,79,0.00,,---,0.00,VWS V13.01,2013-04-18 07:16:00,
2013-04-18 03:21:00,62.2,55.6,30.03,SSW,207,7.0,13.0,79,0.00,,---,0.00,VWS V13.01,2013-04-18 07:21:00,
2013-04-18 03:27:00,62.2,55.6,30.03,SE,127,1.0,13.0,79,0.00,,---,0.00,VWS V13.01,2013-04-18 07:27:00,
2013-04-18 03:32:00,62.2,56.0,30.03,ESE,116,10.0,13.0,80,0.00,,---,0.00,VWS V13.01,2013-04-18 07:32:00,
2013-04-18 03:37:00,62.2,56.0,30.03,SE,128,9.0,14.0,80,0.00,,---,0.00,VWS V13.01,2013-04-18 07:37:00,
2013-04-18 03:42:00,62.3,56.1,30.02,South,174,4.0,14.0,80,0.00,,---,0.00,VWS V13.01,2013-04-18 07:42:00,
2013-04-18 03:47:00,62.3,56.1,30.02,ESE,106,8.0,21.0,80,0.00,,---,0.00,VWS V13.01,2013-04-18 07:47:00,
2013-04-18 03:52:00,62.3,56.1,30.01,SSE,157,5.0,21.0,80,0.00,,---,0.00,VWS V13.01,2013-04-18 07:52:00,
2013-04-18 03:57:00,62.3,56.1,30.02,South,174,2.0,21.0,80,0.00,,---,0.00,VWS V13.01,2013-04-18 07:57:00,
2013-04-18 04:02:00,62.3,56.1,30.02,SE,133,9.0,11.0,80,0.00,,---,0.00,VWS V13.01,2013-04-18 08:02:00,
2013-04-18 04:07:00,62.2,56.0,30.02,SE,136,4.0,11.0,80,0.00,,---,0.00,VWS V13.01,2013-04-18 08:07:00,
2013-04-18 04:12:00,62.2,56.0,30.02,ESE,117,8.0,11.0,80,0.00,,---,0.00,VWS V13.01,2013-04-18 08:12:00,
2013-04-18 04:17:00,62.2,56.0,30.02,ENE,78,4.0,15.0,80,0.00,,---,0.00,VWS V13.01,2013-04-18 08:17:00,
2013-04-18 04:22:00,62.1,55.9,30.02,SSW,211,4.0,15.0,80,0.00,,---,0.00,VWS V13.01,2013-04-18 08:22:00,
2013-04-18 04:27:00,62.1,55.9,30.02,SSE,163,4.0,15.0,80,0.00,,---,0.00,VWS V13.01,2013-04-18 08:27:00,
2013-04-18 04:32:00,62.0,56.1,30.01,South,170,5.0,9.0,81,0.00,,---,0.00,VWS V13.01,2013-04-18 08:32:00,
2013-04-18 04:37:00,62.0,56.1,30.01,SSE,155,4.0,13.0,81,0.00,,---,0.00,VWS V13.01,2013-04-18 08:37:00,
2013-04-18 04:42:00,62.0,56.1,30.00,SSE,153,9.0,14.0,81,0.00,,---,0.00,VWS V13.01,2013-04-18 08:42:00,
2013-04-18 04:47:00,62.1,56.2,30.01,SSW,203,1.0,14.0,81,0.00,,---,0.00,VWS V13.01,2013-04-18 08:47:00,
2013-04-18 04:52:00,62.1,56.2,30.00,East,95,3.0,14.0,81,0.00,,---,0.00,VWS V13.01,2013-04-18 08:52:00,
2013-04-18 04:57:00,62.2,56.3,30.00,SSE,160,5.0,14.0,81,0.00,,---,0.00,VWS V13.01,2013-04-18 08:57:00,
2013-04-18 05:02:00,62.2,56.3,30.01,SW,219,6.0,12.0,81,0.00,,---,0.00,VWS V13.01,2013-04-18 09:02:00,
2013-04-18 05:07:00,62.3,56.4,30.00,SE,130,2.0,19.0,81,0.00,,---,0.00,VWS V13.01,2013-04-18 09:07:00,
2013-04-18 05:12:00,62.3,56.4,30.00,South,184,2.0,19.0,81,0.00,,---,0.00,VWS V13.01,2013-04-18 09:12:00,
2013-04-18 05:17:00,62.2,56.3,30.01,ESE,120,3.0,19.0,81,0.00,,---,0.00,VWS V13.01,2013-04-18 09:17:00,
2013-04-18 05:22:00,62.2,56.3,30.01,South,169,2.0,19.0,81,0.00,,---,0.00,VWS V13.01,2013-04-18 09:22:00,
2013-04-18 05:27:00,62.2,56.3,30.00,South,186,3.0,19.0,81,0.00,,---,0.00,VWS V13.01,2013-04-18 09:27:00,
2013-04-18 05:32:00,62.1,56.5,30.00,SSE,161,3.0,5.0,82,0.00,,---,0.00,VWS V13.01,2013-04-18 09:32:00,
2013-04-18 05:37:00,62.0,56.5,30.00,WNW,291,0.0,5.0,82,0.00,,---,0.00,VWS V13.01,2013-04-18 09:37:00,
2013-04-18 05:42:00,62.0,56.5,30.00,NW,305,2.0,5.0,82,0.00,,---,0.00,VWS V13.01,2013-04-18 09:42:00,
2013-04-18 05:47:00,62.0,56.5,30.00,WSW,246,5.0,7.0,82,0.00,,---,0.00,VWS V13.01,2013-04-18 09:47:00,
2013-04-18 05:52:00,62.0,56.5,30.00,SSE,157,2.0,7.0,82,0.00,,---,0.00,VWS V13.01,2013-04-18 09:52:00,
2013-04-18 05:57:00,62.0,56.5,30.01,North,360,1.0,7.0,82,0.00,,---,0.00,VWS V13.01,2013-04-18 09:57:00,
2013-04-18 06:02:00,61.9,56.3,30.01,West,275,0.0,1.0,82,0.00,,---,0.00,VWS V13.01,2013-04-18 10:02:00,
2013-04-18 06:07:00,61.8,56.6,30.01,WNW,293,1.0,4.0,83,0.00,,---,0.00,VWS V13.01,2013-04-18 10:07:00,
2013-04-18 06:12:00,61.8,56.6,30.01,WNW,289,9.0,9.0,83,0.00,,---,0.00,VWS V13.01,2013-04-18 10:12:00,
2013-04-18 06:17:00,61.9,56.7,30.01,NW,311,2.0,10.0,83,0.00,,---,0.00,VWS V13.01,2013-04-18 10:17:00,
2013-04-18 06:22:00,61.8,56.6,30.02,NNW,327,3.0,10.0,83,0.00,,---,0.00,VWS V13.01,2013-04-18 10:22:00,
2013-04-18 06:27:00,61.8,56.6,30.02,West,259,2.0,10.0,83,0.00,,---,0.00,VWS V13.01,2013-04-18 10:27:00,
2013-04-18 06:32:00,61.8,56.6,30.02,SW,229,0.0,0.0,83,0.00,,---,0.00,VWS V13.01,2013-04-18 10:32:00,
2013-04-18 06:37:00,61.9,56.7,30.02,South,176,3.0,10.0,83,0.00,,---,0.00,VWS V13.01,2013-04-18 10:37:00,
2013-04-18 06:42:00,62.0,56.5,30.02,SSW,213,1.0,10.0,82,0.00,,---,0.00,VWS V13.01,2013-04-18 10:42:00,
2013-04-18 06:47:00,62.0,56.8,30.02,NW,313,0.0,10.0,83,0.00,,---,0.00,VWS V13.01,2013-04-18 10:47:00,
2013-04-18 06:52:00,62.0,56.8,30.02,SW,232,2.0,10.0,83,0.00,,---,0.00,VWS V13.01,2013-04-18 10:52:00,
2013-04-18 06:57:00,62.0,56.8,30.02,SSE,167,1.0,10.0,83,0.00,,---,0.00,VWS V13.01,2013-04-18 10:57:00,
2013-04-18 07:02:00,62.1,56.9,30.02,WNW,299,0.0,5.0,83,0.00,,---,0.00,VWS V13.01,2013-04-18 11:02:00,
2013-04-18 07:07:00,62.2,57.0,30.03,SW,228,1.0,7.0,83,0.00,,---,0.00,VWS V13.01,2013-04-18 11:07:00,
2013-04-18 07:12:00,62.3,57.1,30.03,West,281,0.0,7.0,83,0.00,,---,0.00,VWS V13.01,2013-04-18 11:12:00,
2013-04-18 07:17:00,62.6,57.0,30.03,WNW,292,1.0,7.0,82,0.00,,---,0.00,VWS V13.01,2013-04-18 11:17:00,
2013-04-18 07:22:00,62.9,57.3,30.03,NNE,19,0.0,7.0,82,0.00,,---,0.00,VWS V13.01,2013-04-18 11:22:00,
2013-04-18 07:27:00,63.1,57.2,30.03,West,277,1.0,7.0,81,0.00,,---,0.00,VWS V13.01,2013-04-18 11:27:00,
2013-04-18 07:32:00,63.4,57.5,30.03,WNW,283,1.0,2.0,81,0.00,,---,0.00,VWS V13.01,2013-04-18 11:32:00,
2013-04-18 07:37:00,63.7,57.4,30.03,East,81,3.0,5.0,80,0.00,,---,0.00,VWS V13.01,2013-04-18 11:37:00,
2013-04-18 07:42:00,64.1,57.8,30.03,SSE,166,8.0,14.0,80,0.00,,---,0.00,VWS V13.01,2013-04-18 11:42:00,
2013-04-18 07:47:00,64.4,57.8,30.03,SSE,148,3.0,15.0,79,0.00,,---,0.00,VWS V13.01,2013-04-18 11:47:00,
2013-04-18 07:52:00,64.7,57.7,30.03,SE,138,5.0,15.0,78,0.00,,---,0.00,VWS V13.01,2013-04-18 11:52:00,
2013-04-18 07:57:00,65.0,58.0,30.03,SE,136,5.0,15.0,78,0.00,,---,0.00,VWS V13.01,2013-04-18 11:57:00,
2013-04-18 08:02:00,65.3,58.3,30.03,South,186,1.0,6.0,78,0.00,,---,0.00,VWS V13.01,2013-04-18 12:02:00,
2013-04-18 08:07:00,65.7,58.3,30.03,SE,128,4.0,8.0,77,0.00,,---,0.00,VWS V13.01,2013-04-18 12:07:00,
2013-04-18 08:12:00,65.9,58.5,30.03,SE,135,5.0,9.0,77,0.00,,---,0.00,VWS V13.01,2013-04-18 12:12:00,
2013-04-18 08:17:00,66.3,58.5,30.02,ESE,110,3.0,11.0,76,0.00,,---,0.00,VWS V13.01,2013-04-18 12:17:00,
2013-04-18 08:22:00,66.7,58.9,30.03,ESE,105,7.0,11.0,76,0.00,,---,0.00,VWS V13.01,2013-04-18 12:22:00,
2013-04-18 08:27:00,67.0,58.5,30.03,SE,131,14.0,14.0,74,0.00,,---,0.00,VWS V13.01,2013-04-18 12:27:00,
2013-04-18 08:32:00,67.3,58.7,30.03,SW,231,6.0,9.0,74,0.00,,---,0.00,VWS V13.01,2013-04-18 12:32:00,
2013-04-18 08:37:00,67.5,58.9,30.03,South,188,6.0,14.0,74,0.00,,---,0.00,VWS V13.01,2013-04-18 12:37:00,
2013-04-18 08:42:00,67.7,58.7,30.03,SE,142,11.0,14.0,73,0.00,,---,0.00,VWS V13.01,2013-04-18 12:42:00,
2013-04-18 08:47:00,68.0,58.7,30.03,SSE,149,3.0,16.0,72,0.00,,---,0.00,VWS V13.01,2013-04-18 12:47:00,
2013-04-18 08:52:00,68.3,58.9,30.03,SSW,209,3.0,16.0,72,0.00,,---,0.00,VWS V13.01,2013-04-18 12:52:00,
2013-04-18 08:57:00,68.6,59.2,30.02,South,184,15.0,16.0,72,0.00,,---,0.00,VWS V13.01,2013-04-18 12:57:00,
2013-04-18 09:02:00,68.9,59.1,30.03,SSW,198,3.0,9.0,71,0.00,,---,0.00,VWS V13.01,2013-04-18 13:02:00,
2013-04-18 09:07:00,69.2,59.0,30.03,SSE,159,6.0,13.0,70,0.00,,---,0.00,VWS V13.01,2013-04-18 13:07:00,
2013-04-18 09:12:00,69.4,59.2,30.02,ESE,121,7.0,13.0,70,0.00,,---,0.00,VWS V13.01,2013-04-18 13:12:00,
2013-04-18 09:17:00,69.9,59.7,30.02,SSW,209,5.0,13.0,70,0.00,,---,0.00,VWS V13.01,2013-04-18 13:17:00,
2013-04-18 09:22:00,70.1,59.1,30.02,South,176,4.0,13.0,68,0.00,,---,0.00,VWS V13.01,2013-04-18 13:22:00,
2013-04-18 09:27:00,70.5,59.4,30.01,SSE,153,3.0,16.0,68,0.00,,---,0.00,VWS V13.01,2013-04-18 13:27:00,
2013-04-18 09:32:00,71.0,59.9,30.01,SE,143,3.0,10.0,68,0.00,,---,0.00,VWS V13.01,2013-04-18 13:32:00,
2013-04-18 09:37:00,71.4,59.9,30.01,SSW,192,6.0,12.0,67,0.00,,---,0.00,VWS V13.01,2013-04-18 13:37:00,
2013-04-18 09:42:00,71.6,59.7,30.01,South,173,8.0,18.0,66,0.00,,---,0.00,VWS V13.01,2013-04-18 13:42:00,
2013-04-18 09:47:00,72.0,60.0,30.01,SSE,162,5.0,18.0,66,0.00,,---,0.00,VWS V13.01,2013-04-18 13:47:00,
2013-04-18 09:52:00,72.6,60.2,30.00,SSW,192,7.0,18.0,65,0.00,,---,0.00,VWS V13.01,2013-04-18 13:52:00,
2013-04-18 09:57:00,73.1,60.7,30.00,SW,223,3.0,18.0,65,0.00,,---,0.00,VWS V13.01,2013-04-18 13:57:00,
2013-04-18 10:02:00,73.4,60.0,30.00,SSW,196,7.0,12.0,63,0.00,,---,0.00,VWS V13.01,2013-04-18 14:02:00,
2013-04-18 10:07:00,73.9,60.5,30.00,SE,129,12.0,13.0,63,0.00,,---,0.00,VWS V13.01,2013-04-18 14:07:00,
2013-04-18 10:12:00,74.5,61.1,30.00,South,187,10.0,14.0,63,0.00,,---,0.00,VWS V13.01,2013-04-18 14:12:00,
2013-04-18 10:17:00,74.9,60.1,30.00,South,179,6.0,14.0,60,0.00,,---,0.00,VWS V13.01,2013-04-18 14:17:00,
2013-04-18 10:22:00,75.3,60.5,30.00,South,178,8.0,16.0,60,0.00,,---,0.00,VWS V13.01,2013-04-18 14:22:00,
2013-04-18 10:27:00,75.6,60.3,30.00,SSW,204,7.0,16.0,59,0.00,,---,0.00,VWS V13.01,2013-04-18 14:27:00,
2013-04-18 10:32:00,75.8,60.0,30.00,South,175,10.0,16.0,58,0.00,,---,0.00,VWS V13.01,2013-04-18 14:32:00,
2013-04-18 10:37:00,75.9,60.1,29.99,SSE,164,12.0,17.0,58,0.00,,---,0.00,VWS V13.01,2013-04-18 14:37:00,
2013-04-18 10:42:00,76.0,59.7,29.99,SSW,194,7.0,17.0,57,0.00,,---,0.00,VWS V13.01,2013-04-18 14:42:00,
2013-04-18 10:47:00,76.5,60.6,29.99,SSW,211,3.0,17.0,58,0.00,,---,0.00,VWS V13.01,2013-04-18 14:47:00,
2013-04-18 10:52:00,77.0,60.6,29.99,South,180,7.0,17.0,57,0.00,,---,0.00,VWS V13.01,2013-04-18 14:52:00,
2013-04-18 10:57:00,77.1,61.2,29.99,SSW,192,5.0,17.0,58,0.00,,---,0.00,VWS V13.01,2013-04-18 14:57:00,
2013-04-18 11:02:00,77.5,60.6,29.99,South,183,8.0,12.0,56,0.00,,---,0.00,VWS V13.01,2013-04-18 15:02:00,
2013-04-18 11:07:00,77.8,60.4,29.99,South,185,14.0,14.0,55,0.00,,---,0.00,VWS V13.01,2013-04-18 15:07:00,
2013-04-18 11:12:00,77.8,59.8,29.99,South,191,7.0,15.0,54,0.00,,---,0.00,VWS V13.01,2013-04-18 15:12:00,
2013-04-18 11:17:00,78.1,60.6,29.98,SW,219,7.0,15.0,55,0.00,,---,0.00,VWS V13.01,2013-04-18 15:17:00,
2013-04-18 11:22:00,78.3,60.3,29.98,SSW,195,6.0,15.0,54,0.00,,---,0.00,VWS V13.01,2013-04-18 15:22:00,
2013-04-18 11:27:00,78.6,60.6,29.98,SSW,205,5.0,18.0,54,0.00,,---,0.00,VWS V13.01,2013-04-18 15:27:00,
2013-04-18 11:32:00,78.7,59.6,29.98,SSW,205,8.0,23.0,52,0.00,,---,0.00,VWS V13.01,2013-04-18 15:32:00,
2013-04-18 11:37:00,78.5,60.0,29.97,SSW,193,7.0,23.0,53,0.00,,---,0.00,VWS V13.01,2013-04-18 15:37:00,
2013-04-18 11:42:00,78.7,60.2,29.97,SSE,166,3.0,23.0,53,0.00,,---,0.00,VWS V13.01,2013-04-18 15:42:00,
2013-04-18 11:47:00,78.6,59.5,29.97,South,188,8.0,23.0,52,0.00,,---,0.00,VWS V13.01,2013-04-18 15:47:00,
2013-04-18 11:53:00,78.2,60.7,29.97,SW,217,9.0,23.0,55,0.00,,---,0.00,VWS V13.01,2013-04-18 15:53:00,
2013-04-18 11:58:00,78.6,61.6,29.96,SSW,199,9.0,23.0,56,0.00,,---,0.00,VWS V13.01,2013-04-18 15:58:00,
2013-04-18 12:03:00,79.1,61.0,29.96,West,264,13.0,18.0,54,0.00,,---,0.00,VWS V13.01,2013-04-18 16:03:00,
2013-04-18 12:08:00,79.5,59.8,29.95,SSW,200,6.0,22.0,51,0.00,,---,0.00,VWS V13.01,2013-04-18 16:08:00,
2013-04-18 12:13:00,80.2,61.5,29.95,SSW,197,9.0,22.0,53,0.00,,---,0.00,VWS V13.01,2013-04-18 16:13:00,
2013-04-18 12:18:00,80.9,62.7,29.95,South,181,7.0,22.0,54,0.00,,---,0.00,VWS V13.01,2013-04-18 16:18:00,
2013-04-18 12:23:00,81.4,61.0,29.94,SW,216,8.0,22.0,50,0.00,,---,0.00,VWS V13.01,2013-04-18 16:23:00,
2013-04-18 12:28:00,81.0,61.2,29.94,SW,236,6.0,22.0,51,0.00,,---,0.00,VWS V13.01,2013-04-18 16:28:00,
2013-04-18 12:33:00,80.7,60.9,29.93,SW,224,10.0,13.0,51,0.00,,---,0.00,VWS V13.01,2013-04-18 16:33:00,
2013-04-18 12:38:00,79.7,60.0,29.93,SW,217,7.0,17.0,51,0.00,,---,0.00,VWS V13.01,2013-04-18 16:38:00,
2013-04-18 12:43:00,79.0,60.4,29.93,SSW,205,7.0,17.0,53,0.00,,---,0.00,VWS V13.01,2013-04-18 16:43:00,
2013-04-18 12:48:00,78.4,59.9,29.93,SSW,209,13.0,17.0,53,0.00,,---,0.00,VWS V13.01,2013-04-18 16:48:00,
2013-04-18 12:53:00,78.2,60.2,29.93,SW,222,5.0,17.0,54,0.00,,---,0.00,VWS V13.01,2013-04-18 16:53:00,
2013-04-18 12:58:00,78.0,61.0,29.92,SSW,209,6.0,17.0,56,0.00,,---,0.00,VWS V13.01,2013-04-18 16:58:00,
2013-04-18 13:03:00,77.5,61.1,29.93,SSE,168,2.0,9.0,57,0.00,,---,0.00,VWS V13.01,2013-04-18 17:03:00,
2013-04-18 13:08:00,77.3,62.3,29.92,SSE,148,4.0,10.0,60,0.00,,---,0.00,VWS V13.01,2013-04-18 17:08:00,
2013-04-18 13:13:00,77.2,62.2,29.92,SSE,150,5.0,12.0,60,0.00,,---,0.00,VWS V13.01,2013-04-18 17:13:00,
2013-04-18 13:18:00,77.2,61.8,29.91,SSE,148,7.0,12.0,59,0.00,,---,0.00,VWS V13.01,2013-04-18 17:18:00,
2013-04-18 13:23:00,76.9,61.5,29.91,ESE,118,5.0,14.0,59,0.00,,---,0.00,VWS V13.01,2013-04-18 17:23:00,
2013-04-18 13:28:00,76.9,62.0,29.91,SE,128,12.0,14.0,60,0.00,,---,0.00,VWS V13.01,2013-04-18 17:28:00,
2013-04-18 13:33:00,77.1,62.6,29.91,SSE,157,4.0,10.0,61,0.00,,---,0.00,VWS V13.01,2013-04-18 17:33:00,
2013-04-18 13:38:00,77.3,62.8,29.91,SE,134,5.0,10.0,61,0.00,,---,0.00,VWS V13.01,2013-04-18 17:38:00,
2013-04-18 13:43:00,77.4,62.4,29.90,SSE,148,3.0,13.0,60,0.00,,---,0.00,VWS V13.01,2013-04-18 17:43:00,
2013-04-18 13:48:00,77.3,62.3,29.90,SSE,156,1.0,13.0,60,0.00,,---,0.00,VWS V13.01,2013-04-18 17:48:00,
2013-04-18 13:53:00,77.1,62.6,29.90,SE,141,12.0,16.0,61,0.00,,---,0.00,VWS V13.01,2013-04-18 17:53:00,
2013-04-18 13:58:00,77.0,63.0,29.90,East,82,11.0,17.0,62,0.00,,---,0.00,VWS V13.01,2013-04-18 17:58:00,
2013-04-18 14:03:00,77.4,63.4,29.90,SE,131,7.0,15.0,62,0.00,,---,0.00,VWS V13.01,2013-04-18 18:03:00,
2013-04-18 14:08:00,77.9,63.4,29.89,ESE,116,5.0,15.0,61,0.00,,---,0.00,VWS V13.01,2013-04-18 18:08:00,
2013-04-18 14:13:00,78.1,63.6,29.89,SSW,201,3.0,15.0,61,0.00,,---,0.00,VWS V13.01,2013-04-18 18:13:00,
2013-04-18 14:18:00,78.6,64.0,29.89,SSW,194,4.0,15.0,61,0.00,,---,0.00,VWS V13.01,2013-04-18 18:18:00,
2013-04-18 14:23:00,79.3,65.2,29.88,SE,135,7.0,15.0,62,0.00,,---,0.00,VWS V13.01,2013-04-18 18:23:00,
2013-04-18 14:28:00,79.7,64.1,29.88,SSE,159,3.0,18.0,59,0.00,,---,0.00,VWS V13.01,2013-04-18 18:28:00,
2013-04-18 14:33:00,80.3,63.7,29.88,SSW,200,8.0,10.0,57,0.00,,---,0.00,VWS V13.01,2013-04-18 18:33:00,
2013-04-18 14:38:00,80.6,64.0,29.88,ESE,107,5.0,10.0,57,0.00,,---,0.00,VWS V13.01,2013-04-18 18:38:00,
2013-04-18 14:43:00,80.8,64.7,29.87,SE,130,12.0,15.0,58,0.00,,---,0.00,VWS V13.01,2013-04-18 18:43:00,
2013-04-18 14:48:00,81.1,64.4,29.87,ESE,119,5.0,15.0,57,0.00,,---,0.00,VWS V13.01,2013-04-18 18:48:00,
2013-04-18 14:53:00,81.5,64.8,29.86,South,181,10.0,15.0,57,0.00,,---,0.00,VWS V13.01,2013-04-18 18:53:00,
2013-04-18 14:58:00,81.2,63.0,29.86,SE,141,4.0,15.0,54,0.00,,---,0.00,VWS V13.01,2013-04-18 18:58:00,
2013-04-18 15:03:00,81.0,63.3,29.86,East,101,9.0,17.0,55,0.00,,---,0.00,VWS V13.01,2013-04-18 19:03:00,
2013-04-18 15:08:00,80.4,62.8,29.86,SE,131,5.0,17.0,55,0.00,,---,0.00,VWS V13.01,2013-04-18 19:08:00,
2013-04-18 15:13:00,80.3,62.7,29.86,SSE,157,6.0,17.0,55,0.00,,---,0.00,VWS V13.01,2013-04-18 19:13:00,
2013-04-18 15:18:00,80.3,63.2,29.85,SE,132,6.0,17.0,56,0.00,,---,0.00,VWS V13.01,2013-04-18 19:18:00,
2013-04-18 15:23:00,80.8,64.2,29.85,SSW,194,2.0,17.0,57,0.00,,---,0.00,VWS V13.01,2013-04-18 19:23:00,
2013-04-18 15:28:00,81.8,64.6,29.85,SE,136,4.0,17.0,56,0.00,,---,0.00,VWS V13.01,2013-04-18 19:28:00,
2013-04-18 15:33:00,82.3,64.0,29.85,SSE,166,6.0,14.0,54,0.00,,---,0.00,VWS V13.01,2013-04-18 19:33:00,
2013-04-18 15:38:00,82.6,64.3,29.85,SE,140,3.0,14.0,54,0.00,,---,0.00,VWS V13.01,2013-04-18 19:38:00,
2013-04-18 15:43:00,82.9,64.0,29.84,SSE,155,3.0,14.0,53,0.00,,---,0.00,VWS V13.01,2013-04-18 19:43:00,
2013-04-18 15:48:00,82.7,62.2,29.84,SE,131,7.0,19.0,50,0.00,,---,0.00,VWS V13.01,2013-04-18 19:48:00,
2013-04-18 15:53:00,81.7,62.4,29.84,South,176,1.0,19.0,52,0.00,,---,0.00,VWS V13.01,2013-04-18 19:53:00,
2013-04-18 15:58:00,81.4,62.6,29.83,ESE,105,3.0,19.0,53,0.00,,---,0.00,VWS V13.01,2013-04-18 19:58:00,
2013-04-18 16:03:00,81.5,62.2,29.83,SSE,159,2.0,13.0,52,0.00,,---,0.00,VWS V13.01,2013-04-18 20:03:00,
2013-04-18 16:08:00,81.6,63.4,29.83,SE,134,6.0,13.0,54,0.00,,---,0.00,VWS V13.01,2013-04-18 20:08:00,
2013-04-18 16:13:00,81.6,62.3,29.83,SSE,162,6.0,13.0,52,0.00,,---,0.00,VWS V13.01,2013-04-18 20:13:00,
2013-04-18 16:18:00,81.3,61.5,29.83,SSE,155,5.0,16.0,51,0.00,,---,0.00,VWS V13.01,2013-04-18 20:18:00,
2013-04-18 16:23:00,81.3,62.5,29.83,SE,142,5.0,16.0,53,0.00,,---,0.00,VWS V13.01,2013-04-18 20:23:00,
2013-04-18 16:28:00,81.9,62.0,29.82,SSW,198,7.0,16.0,51,0.00,,---,0.00,VWS V13.01,2013-04-18 20:28:00,
2013-04-18 16:33:00,82.3,59.5,29.82,SSE,157,2.0,15.0,46,0.00,,---,0.00,VWS V13.01,2013-04-18 20:33:00,
2013-04-18 16:38:00,82.6,59.8,29.82,SSE,163,6.0,15.0,46,0.00,,---,0.00,VWS V13.01,2013-04-18 20:38:00,
2013-04-18 16:43:00,82.9,59.4,29.81,SSW,209,9.0,16.0,45,0.00,,---,0.00,VWS V13.01,2013-04-18 20:43:00,
2013-04-18 16:48:00,83.0,59.5,29.81,SW,215,5.0,16.0,45,0.00,,---,0.00,VWS V13.01,2013-04-18 20:48:00,
2013-04-18 16:53:00,83.6,60.0,29.81,SSE,165,3.0,16.0,45,0.00,,---,0.00,VWS V13.01,2013-04-18 20:53:00,
2013-04-18 16:58:00,83.8,59.6,29.81,South,169,5.0,16.0,44,0.00,,---,0.00,VWS V13.01,2013-04-18 20:58:00,
2013-04-18 17:03:00,83.4,59.8,29.81,SSW,197,3.0,11.0,45,0.00,,---,0.00,VWS V13.01,2013-04-18 21:03:00,
2013-04-18 17:08:00,82.9,60.0,29.81,SE,140,5.0,16.0,46,0.00,,---,0.00,VWS V13.01,2013-04-18 21:08:00,
2013-04-18 17:13:00,82.4,59.6,29.80,SE,136,6.0,16.0,46,0.00,,---,0.00,VWS V13.01,2013-04-18 21:13:00,
2013-04-18 17:18:00,81.8,60.2,29.80,ESE,123,4.0,16.0,48,0.00,,---,0.00,VWS V13.01,2013-04-18 21:18:00,
2013-04-18 17:23:00,81.4,61.0,29.80,SSE,148,3.0,16.0,50,0.00,,---,0.00,VWS V13.01,2013-04-18 21:23:00,
2013-04-18 17:28:00,81.0,60.1,29.80,ESE,113,3.0,16.0,49,0.00,,---,0.00,VWS V13.01,2013-04-18 21:28:00,
2013-04-18 17:33:00,80.9,60.5,29.80,ESE,123,8.0,9.0,50,0.00,,---,0.00,VWS V13.01,2013-04-18 21:33:00,
2013-04-18 17:38:00,80.8,59.9,29.80,South,188,3.0,13.0,49,0.00,,---,0.00,VWS V13.01,2013-04-18 21:38:00,
2013-04-18 17:43:00,81.1,60.7,29.80,SSW,197,4.0,13.0,50,0.00,,---,0.00,VWS V13.01,2013-04-18 21:43:00,
2013-04-18 17:48:00,81.7,61.3,29.80,South,175,5.0,13.0,50,0.00,,---,0.00,VWS V13.01,2013-04-18 21:48:00,
2013-04-18 17:53:00,82.2,60.6,29.79,SSE,161,3.0,13.0,48,0.00,,---,0.00,VWS V13.01,2013-04-18 21:53:00,
2013-04-18 17:58:00,82.7,59.8,29.79,South,177,4.0,13.0,46,0.00,,---,0.00,VWS V13.01,2013-04-18 21:58:00,
2013-04-18 18:03:00,82.8,59.9,29.79,ESE,122,15.0,20.0,46,0.00,,---,0.00,VWS V13.01,2013-04-18 22:03:00,
2013-04-18 18:08:00,82.3,59.5,29.79,SE,146,2.0,20.0,46,0.00,,---,0.00,VWS V13.01,2013-04-18 22:08:00,
2013-04-18 18:13:00,81.9,59.7,29.79,SSE,154,4.0,20.0,47,0.00,,---,0.00,VWS V13.01,2013-04-18 22:13:00,
2013-04-18 18:18:00,81.3,59.8,29.79,South,185,9.0,20.0,48,0.00,,---,0.00,VWS V13.01,2013-04-18 22:18:00,
2013-04-18 18:23:00,80.7,59.2,29.79,SSW,201,6.0,20.0,48,0.00,,---,0.00,VWS V13.01,2013-04-18 22:23:00,
2013-04-18 18:28:00,80.3,58.8,29.79,South,187,11.0,20.0,48,0.00,,---,0.00,VWS V13.01,2013-04-18 22:28:00,
2013-04-18 18:33:00,80.1,59.2,29.79,SSE,147,2.0,13.0,49,0.00,,---,0.00,VWS V13.01,2013-04-18 22:33:00,
2013-04-18 18:38:00,79.9,59.0,29.79,SSE,153,12.0,17.0,49,0.00,,---,0.00,VWS V13.01,2013-04-18 22:38:00,
2013-04-18 18:43:00,79.9,59.6,29.79,SSW,196,5.0,17.0,50,0.00,,---,0.00,VWS V13.01,2013-04-18 22:43:00,
2013-04-18 18:48:00,79.7,58.9,29.79,SSE,148,7.0,19.0,49,0.00,,---,0.00,VWS V13.01,2013-04-18 22:48:00,
2013-04-18 18:53:00,79.4,58.6,29.79,SSE,153,6.0,19.0,49,0.00,,---,0.00,VWS V13.01,2013-04-18 22:53:00,
2013-04-18 18:58:00,79.1,58.9,29.79,SSW,194,7.0,19.0,50,0.00,,---,0.00,VWS V13.01,2013-04-18 22:58:00,
2013-04-18 19:03:00,78.8,58.0,29.79,SSE,168,8.0,19.0,49,0.00,,---,0.00,VWS V13.01,2013-04-18 23:03:00,
2013-04-18 19:08:00,78.6,58.4,29.79,SSE,168,10.0,19.0,50,0.00,,---,0.00,VWS V13.01,2013-04-18 23:08:00,
2013-04-18 19:13:00,78.4,58.2,29.79,SSW,200,3.0,19.0,50,0.00,,---,0.00,VWS V13.01,2013-04-18 23:13:00,
2013-04-18 19:18:00,78.2,58.6,29.79,SSW,192,7.0,19.0,51,0.00,,---,0.00,VWS V13.01,2013-04-18 23:18:00,
2013-04-18 19:23:00,77.9,58.3,29.79,SSW,208,5.0,19.0,51,0.00,,---,0.00,VWS V13.01,2013-04-18 23:23:00,
2013-04-18 19:28:00,77.6,58.6,29.79,South,180,4.0,21.0,52,0.00,,---,0.00,VWS V13.01,2013-04-18 23:28:00,
2013-04-18 19:33:00,77.2,58.2,29.79,SE,140,11.0,15.0,52,0.00,,---,0.00,VWS V13.01,2013-04-18 23:33:00,
2013-04-18 19:38:00,76.9,58.5,29.79,SSW,194,6.0,21.0,53,0.00,,---,0.00,VWS V13.01,2013-04-18 23:38:00,
2013-04-18 19:43:00,76.6,58.2,29.79,SSW,194,17.0,21.0,53,0.00,,---,0.00,VWS V13.01,2013-04-18 23:43:00,
2013-04-18 19:48:00,76.2,58.4,29.79,SSE,160,5.0,23.0,54,0.00,,---,0.00,VWS V13.01,2013-04-18 23:48:00,
2013-04-18 19:53:00,76.0,58.2,29.79,South,185,6.0,23.0,54,0.00,,---,0.00,VWS V13.01,2013-04-18 23:53:00,
2013-04-18 19:58:00,75.8,58.0,29.79,SE,144,15.0,24.0,54,0.00,,---,0.00,VWS V13.01,2013-04-18 23:58:00,
2013-04-18 20:03:00,75.7,57.9,29.80,South,188,11.0,21.0,54,0.00,,---,0.00,VWS V13.01,2013-04-19 00:03:00,
2013-04-18 20:08:00,75.4,58.1,29.79,South,170,11.0,21.0,55,0.00,,---,0.00,VWS V13.01,2013-04-19 00:08:00,
2013-04-18 20:13:00,75.1,57.3,29.79,SSE,147,4.0,21.0,54,0.00,,---,0.00,VWS V13.01,2013-04-19 00:13:00,
2013-04-18 20:18:00,74.9,57.7,29.80,SE,141,10.0,21.0,55,0.00,,---,0.00,VWS V13.01,2013-04-19 00:18:00,
2013-04-18 20:23:00,74.7,57.0,29.80,South,180,12.0,21.0,54,0.00,,---,0.00,VWS V13.01,2013-04-19 00:23:00,
2013-04-18 20:28:00,74.6,57.4,29.80,South,170,6.0,26.0,55,0.00,,---,0.00,VWS V13.01,2013-04-19 00:28:00,
2013-04-18 20:33:00,74.4,56.7,29.80,South,173,5.0,17.0,54,0.00,,---,0.00,VWS V13.01,2013-04-19 00:33:00,
2013-04-18 20:38:00,74.2,57.0,29.80,SSE,165,11.0,17.0,55,0.00,,---,0.00,VWS V13.01,2013-04-19 00:38:00,
2013-04-18 20:43:00,74.1,56.4,29.81,SE,145,7.0,19.0,54,0.00,,---,0.00,VWS V13.01,2013-04-19 00:43:00,
2013-04-18 20:48:00,74.1,56.4,29.81,South,180,5.0,19.0,54,0.00,,---,0.00,VWS V13.01,2013-04-19 00:48:00,
2013-04-18 20:53:00,74.0,55.8,29.82,SSW,194,5.0,20.0,53,0.00,,---,0.00,VWS V13.01,2013-04-19 00:53:00,
2013-04-18 20:58:00,74.0,55.8,29.82,South,171,7.0,20.0,53,0.00,,---,0.00,VWS V13.01,2013-04-19 00:58:00,
2013-04-18 21:03:00,73.9,55.7,29.81,South,175,6.0,15.0,53,0.00,,---,0.00,VWS V13.01,2013-04-19 01:03:00,
2013-04-18 21:08:00,73.7,56.0,29.81,SSE,150,5.0,15.0,54,0.00,,---,0.00,VWS V13.01,2013-04-19 01:08:00,
2013-04-18 21:13:00,73.4,56.3,29.81,SSE,149,7.0,15.0,55,0.00,,---,0.00,VWS V13.01,2013-04-19 01:13:00,
2013-04-18 21:18:00,73.0,56.4,29.81,South,169,3.0,15.0,56,0.00,,---,0.00,VWS V13.01,2013-04-19 01:18:00,
2013-04-18 21:23:00,72.6,57.0,29.81,SE,128,7.0,15.0,58,0.00,,---,0.00,VWS V13.01,2013-04-19 01:23:00,
2013-04-18 21:28:00,72.3,56.7,29.81,South,191,5.0,15.0,58,0.00,,---,0.00,VWS V13.01,2013-04-19 01:28:00,
2013-04-18 21:33:00,72.2,57.1,29.81,SSE,157,4.0,17.0,59,0.00,,---,0.00,VWS V13.01,2013-04-19 01:33:00,
2013-04-18 21:38:00,72.1,57.0,29.81,SE,133,4.0,17.0,59,0.00,,---,0.00,VWS V13.01,2013-04-19 01:38:00,
2013-04-18 21:43:00,71.9,56.8,29.81,SE,142,2.0,17.0,59,0.00,,---,0.00,VWS V13.01,2013-04-19 01:43:00,
2013-04-18 21:48:00,71.8,56.7,29.81,South,187,11.0,17.0,59,0.00,,---,0.00,VWS V13.01,2013-04-19 01:48:00,
2013-04-18 21:53:00,71.8,56.7,29.81,South,173,4.0,18.0,59,0.00,,---,0.00,VWS V13.01,2013-04-19 01:53:00,
2013-04-18 21:58:00,71.7,57.1,29.81,SSE,161,13.0,18.0,60,0.00,,---,0.00,VWS V13.01,2013-04-19 01:58:00,
2013-04-18 22:03:00,71.7,56.6,29.81,South,184,4.0,18.0,59,0.00,,---,0.00,VWS V13.01,2013-04-19 02:03:00,
2013-04-18 22:08:00,71.6,56.5,29.81,SSW,194,6.0,18.0,59,0.00,,---,0.00,VWS V13.01,2013-04-19 02:08:00,
2013-04-18 22:13:00,71.5,56.9,29.81,South,179,1.0,18.0,60,0.00,,---,0.00,VWS V13.01,2013-04-19 02:13:00,
2013-04-18 22:18:00,71.3,56.7,29.80,SSE,158,7.0,18.0,60,0.00,,---,0.00,VWS V13.01,2013-04-19 02:18:00,
2013-04-18 22:23:00,71.3,56.7,29.80,SSE,162,10.0,21.0,60,0.00,,---,0.00,VWS V13.01,2013-04-19 02:23:00,
2013-04-18 22:28:00,71.2,56.6,29.80,South,171,7.0,21.0,60,0.00,,---,0.00,VWS V13.01,2013-04-19 02:28:00,
2013-04-18 22:33:00,71.1,56.5,29.80,SSW,194,11.0,14.0,60,0.00,,---,0.00,VWS V13.01,2013-04-19 02:33:00,
2013-04-18 22:38:00,71.0,56.9,29.80,SE,130,7.0,18.0,61,0.00,,---,0.00,VWS V13.01,2013-04-19 02:38:00,
2013-04-18 22:43:00,70.9,56.8,29.80,SSE,148,6.0,18.0,61,0.00,,---,0.00,VWS V13.01,2013-04-19 02:43:00,
2013-04-18 22:48:00,70.8,56.7,29.80,SSE,162,5.0,18.0,61,0.00,,---,0.00,VWS V13.01,2013-04-19 02:48:00,
2013-04-18 22:53:00,70.7,57.1,29.79,SSE,167,7.0,22.0,62,0.00,,---,0.00,VWS V13.01,2013-04-19 02:53:00,
2013-04-18 22:58:00,70.6,57.0,29.79,SSW,201,5.0,22.0,62,0.00,,---,0.00,VWS V13.01,2013-04-19 02:58:00,
2013-04-18 23:03:00,70.4,56.8,29.78,East,95,9.0,10.0,62,0.00,,---,0.00,VWS V13.01,2013-04-19 03:03:00,
2013-04-18 23:08:00,70.3,56.7,29.79,SSW,192,5.0,12.0,62,0.00,,---,0.00,VWS V13.01,2013-04-19 03:08:00,
2013-04-18 23:13:00,70.3,56.7,29.78,SSW,199,7.0,15.0,62,0.00,,---,0.00,VWS V13.01,2013-04-19 03:13:00,
2013-04-18 23:18:00,70.5,56.9,29.79,SSW,205,6.0,15.0,62,0.00,,---,0.00,VWS V13.01,2013-04-19 03:18:00,
2013-04-18 23:23:00,70.4,56.3,29.79,South,186,6.0,15.0,61,0.00,,---,0.00,VWS V13.01,2013-04-19 03:23:00,
2013-04-18 23:28:00,70.5,56.4,29.79,SSW,192,7.0,18.0,61,0.00,,---,0.00,VWS V13.01,2013-04-19 03:28:00,
2013-04-18 23:33:00,70.4,56.3,29.79,SSE,159,7.0,15.0,61,0.00,,---,0.00,VWS V13.01,2013-04-19 03:33:00,
2013-04-18 23:38:00,70.4,56.3,29.78,South,180,13.0,17.0,61,0.00,,---,0.00,VWS V13.01,2013-04-19 03:38:00,
2013-04-18 23:43:00,70.3,56.2,29.78,South,175,6.0,17.0,61,0.00,,---,0.00,VWS V13.01,2013-04-19 03:43:00,
2013-04-18 23:48:00,70.3,56.2,29.79,SSE,167,6.0,17.0,61,0.00,,---,0.00,VWS V13.01,2013-04-19 03:48:00,
2013-04-18 23:53:00,70.2,56.1,29.78,SE,130,4.0,17.0,61,0.00,,---,0.00,VWS V13.01,2013-04-19 03:53:00,
2013-04-18 23:58:00,70.1,56.0,29.78,South,173,4.0,17.0,61,0.00,,---,0.00,VWS V13.01,2013-04-19 03:58:00,